When you browse on this site, cookies collect data to enhance your experience and personalize the content and advertising you see.
Visit our Privacy Policy to learn more. By continuing to use the site, you agree to this use of cookies and data.
  • In Hungary
  • List of Countries
  • For 7 days
  • Water Temperature
  • Satellite Maps
  • Weather Map
  • News
  • Weather Widgets
  • user-avatar
    Login

    Hourly Weather Pamplona

    Today, 17 November, Saturday

    Time Temperature Precipitation Wind Pressure Humidity
    00:00 +10°C° 0 mm 2 mps 719 mmHg 92%
    01:00 +10°C° 0 mm 2 mps 719 mmHg 92%
    02:00 +10°C° 0 mm 2 mps 719 mmHg 92%
    03:00 +10°C° 0 mm 2 mps 719 mmHg 93%
    04:00 +10°C° 0 mm 2 mps 719 mmHg 93%
    05:00 +10°C° 0 mm 2 mps 719 mmHg 93%
    06:00 +10°C° 0 mm 2 mps 718 mmHg 93%
    07:00 +12°C° 0 mm 2 mps 718 mmHg 90%
    08:00 +12°C° 0 mm 2 mps 718 mmHg 87%
    09:00 +13°C° 0 mm 2 mps 718 mmHg 84%
    10:00 +14°C° 0 mm 2 mps 718 mmHg 79%
    11:00 +15°C° 0 mm 2 mps 718 mmHg 74%
    12:00 +16°C° 0 mm 2 mps 717 mmHg 69%
    13:00 +16°C° 0 mm 2 mps 717 mmHg 69%
    14:00 +16°C° 0 mm 2 mps 716 mmHg 69%
    15:00 +16°C° 0 mm 2 mps 716 mmHg 69%
    16:00 +15°C° 0 mm 2 mps 716 mmHg 75%
    17:00 +13°C° 0 mm 2 mps 715 mmHg 82%
    18:00 +12°C° 0 mm 2 mps 715 mmHg 89%
    19:00 +12°C° 0 mm 2 mps 715 mmHg 90%
    20:00 +10°C° 0 mm 2 mps 715 mmHg 91%
    21:00 +10°C° 0 mm 2 mps 715 mmHg 92%
    22:00 +10°C° 0 mm 2 mps 714 mmHg 92%
    23:00 +10°C° 0 mm 3 mps 714 mmHg 93%

    Tomorrow, 18 November, Sunday

    Time Temperature Precipitation Wind Pressure Humidity
    00:00 +9°C° 0 mm 3 mps 714 mmHg 93%
    01:00 +10°C° 0 mm 3 mps 714 mmHg 91%
    02:00 +10°C° 0 mm 3 mps 713 mmHg 90%
    03:00 +10°C° 0 mm 4 mps 713 mmHg 88%
    04:00 +10°C° 0.2 mm 4 mps 713 mmHg 88%
    05:00 +8°C° 0.2 mm 4 mps 713 mmHg 87%
    06:00 +8°C° 0.2 mm 4 mps 713 mmHg 87%
    07:00 +8°C° 0.2 mm 4 mps 713 mmHg 85%
    08:00 +8°C° 0.2 mm 4 mps 713 mmHg 83%
    09:00 +10°C° 0.2 mm 4 mps 713 mmHg 82%
    10:00 +9°C° 0.1 mm 5 mps 713 mmHg 79%
    11:00 +9°C° 0.1 mm 5 mps 713 mmHg 77%
    12:00 +9°C° 0.1 mm 5 mps 713 mmHg 75%
    13:00 +9°C° 0.2 mm 5 mps 712 mmHg 76%
    14:00 +10°C° 0.2 mm 4 mps 712 mmHg 77%
    15:00 +10°C° 0.2 mm 4 mps 712 mmHg 78%
    16:00 +9°C° 0.3 mm 3 mps 712 mmHg 80%
    17:00 +9°C° 0.3 mm 3 mps 712 mmHg 83%
    18:00 +9°C° 0.3 mm 2 mps 712 mmHg 85%
    19:00 +9°C° 0.8 mm 3 mps 712 mmHg 86%
    20:00 +8°C° 0.8 mm 3 mps 712 mmHg 87%
    21:00 +8°C° 0.8 mm 3 mps 712 mmHg 89%
    22:00 +8°C° 0.6 mm 3 mps 712 mmHg 89%
    23:00 +8°C° 0.6 mm 3 mps 712 mmHg 89%

    Day after tomorrow, 19 November, Monday

    Time Temperature Precipitation Wind Pressure Humidity
    00:00 +8°C° 0.6 mm 3 mps 712 mmHg 89%
    01:00 +8°C° 0.2 mm 2 mps 712 mmHg 88%
    02:00 +8°C° 0.2 mm 2 mps 711 mmHg 87%
    03:00 +8°C° 0.2 mm 2 mps 711 mmHg 86%
    04:00 +9°C° 0 mm 1 mps 711 mmHg 86%
    05:00 +9°C° 0 mm 1 mps 711 mmHg 86%
    06:00 +8°C° 0 mm 1 mps 711 mmHg 86%
    07:00 +9°C° 0 mm 1 mps 711 mmHg 84%
    08:00 +10°C° 0 mm 1 mps 711 mmHg 82%
    09:00 +11°C° 0 mm 1 mps 711 mmHg 80%
    10:00 +12°C° 0 mm 1 mps 710 mmHg 76%
    11:00 +12°C° 0 mm 1 mps 710 mmHg 73%
    12:00 +13°C° 0 mm 2 mps 710 mmHg 70%
    13:00 +13°C° 0 mm 2 mps 709 mmHg 70%
    14:00 +13°C° 0 mm 2 mps 709 mmHg 71%
    15:00 +13°C° 0 mm 2 mps 708 mmHg 71%
    16:00 +12°C° 0 mm 2 mps 708 mmHg 77%
    17:00 +9°C° 0 mm 2 mps 708 mmHg 83%
    18:00 +8°C° 0 mm 2 mps 708 mmHg 88%
    19:00 +8°C° 0 mm 3 mps 708 mmHg 88%
    20:00 +7°C° 0 mm 3 mps 708 mmHg 87%
    21:00 +5°C° 0 mm 3 mps 708 mmHg 87%
    22:00 +5°C° 0 mm 3 mps 708 mmHg 87%
    23:00 +5°C° 0 mm 3 mps 708 mmHg 87%

    20 November, Tuesday

    Time Temperature Precipitation Wind Pressure Humidity
    00:00 +4°C° 0 mm 3 mps 708 mmHg 87%
    01:00 +4°C° 0 mm 3 mps 708 mmHg 86%
    02:00 +3°C° 0 mm 3 mps 708 mmHg 85%
    03:00 +3°C° 0 mm 3 mps 708 mmHg 84%
    04:00 +3°C° 0 mm 3 mps 708 mmHg 84%
    05:00 +2°C° 0 mm 3 mps 708 mmHg 84%
    06:00 +2°C° 0 mm 3 mps 708 mmHg 83%
    07:00 +2°C° 0 mm 3 mps 708 mmHg 80%
    08:00 +2°C° 0 mm 3 mps 709 mmHg 76%
    09:00 +2°C° 0 mm 3 mps 709 mmHg 73%
    10:00 +3°C° 0 mm 3 mps 709 mmHg 68%
    11:00 +4°C° 0 mm 3 mps 709 mmHg 62%
    12:00 +5°C° 0 mm 3 mps 709 mmHg 57%
    13:00 +5°C° 0 mm 3 mps 709 mmHg 58%
    14:00 +5°C° 0 mm 3 mps 709 mmHg 59%
    15:00 +5°C° 0 mm 3 mps 709 mmHg 60%
    16:00 +4°C° 0 mm 3 mps 709 mmHg 67%
    17:00 +3°C° 0 mm 2 mps 709 mmHg 73%
    18:00 +3°C° 0 mm 1 mps 710 mmHg 80%
    19:00 +3°C° 0 mm 1 mps 710 mmHg 82%
    20:00 +3°C° 0 mm 1 mps 710 mmHg 84%
    21:00 +2°C° 0 mm 1 mps 711 mmHg 85%
    22:00 +2°C° 0 mm 1 mps 711 mmHg 86%
    23:00 +2°C° 0 mm 1 mps 711 mmHg 86%

    21 November, Wednesday

    Time Temperature Precipitation Wind Pressure Humidity
    00:00 +2°C° 0 mm 1 mps 711 mmHg 86%
    01:00 +2°C° 0 mm 1 mps 711 mmHg 87%
    02:00 +1°C° 0 mm 1 mps 711 mmHg 87%
    03:00 +1°C° 0 mm 1 mps 711 mmHg 87%
    04:00 +1°C° 0 mm 1 mps 711 mmHg 86%
    05:00 +1°C° 0 mm 1 mps 711 mmHg 85%
    06:00 +1°C° 0 mm 1 mps 712 mmHg 84%
    07:00 +3°C° 0 mm 1 mps 712 mmHg 77%
    08:00 +4°C° 0 mm 1 mps 713 mmHg 71%
    09:00 +5°C° 0 mm 1 mps 713 mmHg 65%
    10:00 +6°C° 0 mm 1 mps 713 mmHg 59%
    11:00 +8°C° 0 mm 1 mps 713 mmHg 53%
    12:00 +9°C° 0 mm 1 mps 713 mmHg 47%
    13:00 +9°C° 0 mm 1 mps 713 mmHg 48%
    14:00 +9°C° 0 mm 1 mps 713 mmHg 49%
    15:00 +8°C° 0 mm 2 mps 713 mmHg 50%
    16:00 +6°C° 0 mm 2 mps 713 mmHg 55%
    17:00 +5°C° 0 mm 2 mps 714 mmHg 61%
    18:00 +4°C° 0 mm 2 mps 714 mmHg 67%
    19:00 +4°C° 0 mm 2 mps 714 mmHg 68%
    20:00 +3°C° 0 mm 2 mps 715 mmHg 70%
    21:00 +3°C° 0 mm 2 mps 715 mmHg 71%
    22:00 +3°C° 0 mm 2 mps 715 mmHg 73%
    23:00 +2°C° 0 mm 2 mps 715 mmHg 75%

    22 November, Thursday

    Time Temperature Precipitation Wind Pressure Humidity
    00:00 +1°C° 0 mm 3 mps 715 mmHg 78%
    01:00 +1°C° 0 mm 3 mps 715 mmHg 78%
    02:00 +1°C° 0 mm 3 mps 715 mmHg 79%
    03:00 +1°C° 0 mm 3 mps 715 mmHg 80%
    04:00 +1°C° 0 mm 3 mps 715 mmHg 79%
    05:00 +1°C° 0 mm 3 mps 715 mmHg 79%
    06:00 +1°C° 0 mm 3 mps 716 mmHg 78%
    07:00 +2°C° 0 mm 3 mps 716 mmHg 74%
    08:00 +3°C° 0 mm 3 mps 716 mmHg 70%
    09:00 +4°C° 0 mm 4 mps 717 mmHg 66%
    10:00 +6°C° 0 mm 4 mps 717 mmHg 64%
    11:00 +7°C° 0 mm 4 mps 717 mmHg 62%
    12:00 +8°C° 0 mm 4 mps 717 mmHg 60%
    13:00 +8°C° 0 mm 4 mps 717 mmHg 61%
    14:00 +8°C° 0 mm 4 mps 717 mmHg 62%
    15:00 +8°C° 0 mm 4 mps 717 mmHg 63%
    16:00 +7°C° 0 mm 4 mps 718 mmHg 69%
    17:00 +5°C° 0 mm 3 mps 718 mmHg 75%
    18:00 +4°C° 0 mm 3 mps 718 mmHg 81%
    19:00 +3°C° 0 mm 3 mps 719 mmHg 81%
    20:00 +3°C° 0 mm 3 mps 719 mmHg 80%
    21:00 +3°C° 0 mm 3 mps 719 mmHg 80%
    22:00 +3°C° 0 mm 3 mps 720 mmHg 81%
    23:00 +3°C° 0 mm 3 mps 720 mmHg 81%
    Show more